Tracking 30009 objects as of 7-Dec-2024
HD Live streaming from Space Station
objects crossing your sky now

IRIDIUM 36

Track IRIDIUM 36 now!
10-day predictions
IRIDIUM 36 is classified as:


NORAD ID: 24967
Int'l Code: 1997-056C
Perigee: 773.2 km
Apogee: 776.1 km
Inclination: 86.4 °
Period: 100.2 minutes
Semi major axis: 7145 km
RCS: 3.602 m2 (large)
Launch date: September 27, 1997
Source: United States (US)
Launch site: AIR FORCE WESTERN TEST RANGE (AFWTR)
Your satellite tracking list
Your tracking list is empty




NASA's NSSDC Master Catalog

Two Line Element Set (TLE):
1 24967U 97056C   24341.74069429  .00001107  00000-0  36511-3 0  9998
2 24967  86.3971 253.7927 0002025  79.6397 280.5028 14.37277133424574
Source of the keplerian elements: AFSPC